This demonstration page uses our WeatherBlox Daily Observations layout. Learn more.

Left ArrowRight Arrow

39.12711, -84.51439

Hourly Observations for August 6, 2016

Temp ( °F °C ) Dew Point ( °F °C ) Humidity (%) Winds ( mph kmh ) Pressure ( in mb ) Visibility ( mi km ) Precip ( " mm )
12:53 am 00:53 Partly Cloudy 77 25 76 24.4 96 96 SW 6 9 29.89 1012 8 13 N/A
1:53 am 01:53 Cloudy 78 25.6 76 24.4 93 93 WSW 8 13 29.89 1012 10 16 N/A
2:53 am 02:53 Mostly Cloudy 78 25.6 75 23.9 90 90 W 9 15 29.88 1012 10 16 N/A
3:53 am 03:53 Cloudy 78 25.6 75 23.9 90 90 W 6 9 29.88 1012 10 16 N/A
4:53 am 04:53 Cloudy 78 25.6 75 23.9 90 90 WNW 6 9 29.88 1012 10 16 N/A
5:38 am 05:38 Mostly Cloudy 78 25.6 75 23.9 90 90 NW 5 7 29.91 1013 10 16 N/A
5:53 am 05:53 Cloudy 78 25.6 74 23.3 87 87 NW 6 9 29.88 1012 10 16 N/A
6:53 am 06:53 Cloudy 74 23.3 69 20.6 85 85 N 12 19 29.91 1013 10 16 N/A
7:44 am 07:44 Cloudy 72 22 66 19 83 83 ENE 5 7 29.91 1013 10 16 N/A
7:53 am 07:53 Cloudy 72 22.2 67 19.4 84 84 NNE 5 7 29.92 1013 10 16 N/A
8:53 am 08:53 Cloudy 73 22.8 67 19.4 81 81 ENE 3 6 29.93 1014 10 16 N/A
9:53 am 09:53 Mostly Cloudy 75 23.9 66 18.9 74 74 E 3 6 29.93 1014 10 16 N/A
10:53 am 10:53 Mostly Cloudy 77 25 69 20.6 77 77 N N/A 29.93 1014 10 16 N/A
11:53 am 11:53 Sunny 81 27.2 68 20 65 65 N N/A 29.93 1014 10 16 N/A
12:53 pm 12:53 Mostly Cloudy 83 28.3 63 17.2 51 51 VRB 3 6 29.93 1014 10 16 N/A
1:53 pm 13:53 Mostly Cloudy 85 29.4 65 18.3 51 51 VRB 7 11 29.92 1013 10 16 N/A
2:53 pm 14:53 Mostly Cloudy 86 30 65 18.3 49 49 NNW 8 13 29.91 1013 10 16 N/A
3:53 pm 15:53 Partly Cloudy 86 30 64 17.8 48 48 NNW 8 13 29.89 1012 10 16 N/A
4:53 pm 16:53 Partly Cloudy 86 30 63 17.2 46 46 NNW 10 17 29.88 1012 10 16 N/A
5:53 pm 17:53 Sunny 85 29.4 62 16.7 46 46 N 12 19 29.87 1012 10 16 N/A
6:53 pm 18:53 Sunny 83 28.3 61 16.1 48 48 N 8 13 29.89 1012 10 16 N/A
7:53 pm 19:53 Sunny 82 27.8 60 15.6 47 47 NNW 7 11 29.90 1013 10 16 N/A
8:53 pm 20:53 Clear 75 23.9 65 18.3 71 71 N N/A 29.91 1013 10 16 N/A
9:53 pm 21:53 Clear 70 21.1 66 18.9 87 87 S 3 6 29.93 1014 10 16 N/A
10:53 pm 22:53 Clear 69 20.6 65 18.3 87 87 N N/A 29.94 1014 10 16 N/A
11:53 pm 23:53 Clear 67 19.4 65 18.3 93 93 N N/A 29.94 1014 10 16 N/A

Powered by AerisWeather